| time (UTC) | temp F | wind direction | speed knots | gust knots | rain 1hr in | rain 24hr in | rain mn in | humidity % | barometer mb |
| 20260906214929 | 88 | 163 | 4.3 | 7.0 | 0.00 | 0.00 | 0.00 | 36 | 1018.3 |
| 20260906214428 | 87 | 174 | 1.7 | 8.7 | 0.00 | 0.00 | 0.00 | 37 | 1018.4 |
| 20260906213928 | 88 | 113 | 0.9 | 4.3 | 0.00 | 0.00 | 0.00 | 36 | 1018.6 |
| 20260906213423 | 87 | 189 | 1.7 | 7.8 | 0.00 | 0.00 | 0.00 | 36 | 1018.7 |
| 20260906212920 | 87 | 114 | 0.9 | 6.1 | 0.00 | 0.00 | 0.00 | 38 | 1018.7 |
| 20260906212416 | 87 | 177 | 0.0 | 6.1 | 0.00 | 0.00 | 0.00 | 38 | 1019.0 |
| 20260906211915 | 87 | 164 | 1.7 | 6.1 | 0.00 | 0.00 | 0.00 | 36 | 1019.1 |
| 20260906211410 | 87 | 155 | 4.3 | 6.1 | 0.00 | 0.00 | 0.00 | 36 | 1019.3 |
| 20260906210905 | 86 | 186 | 1.7 | 6.1 | 0.00 | 0.00 | 0.00 | 39 | 1019.0 |
| 20260906210401 | 87 | 188 | 2.6 | 5.2 | 0.00 | 0.00 | 0.00 | 38 | 1019.2 |
| 20260906205855 | 87 | 176 | 1.7 | 4.3 | 0.00 | 0.00 | 0.00 | 39 | 1019.2 |
| 20260906205351 | 86 | 114 | 1.7 | 4.3 | 0.00 | 0.00 | 0.00 | 41 | 1019.1 |
| 20260906204847 | 87 | 144 | 3.5 | 7.0 | 0.00 | 0.00 | 0.00 | 42 | 1019.4 |
| 20260906204346 | 86 | 171 | 1.7 | 4.3 | 0.00 | 0.00 | 0.00 | 43 | 1019.3 |
| 20260906203845 | 86 | 186 | 1.7 | 7.8 | 0.00 | 0.00 | 0.00 | 43 | 1019.6 |
| 20260906203341 | 87 | 173 | 0.9 | 1.7 | 0.00 | 0.00 | 0.00 | 42 | 1019.4 |
| 20260906202838 | 86 | 156 | 3.5 | 5.2 | 0.00 | 0.00 | 0.00 | 43 | 1019.4 |
| 20260906202332 | 86 | 158 | 1.7 | 2.6 | 0.00 | 0.00 | 0.00 | 43 | 1019.4 |
| 20260906201831 | 85 | 157 | 1.7 | 5.2 | 0.00 | 0.00 | 0.00 | 46 | 1019.6 |
| 20260906201326 | 86 | 126 | 2.6 | 5.2 | 0.00 | 0.00 | 0.00 | 43 | 1019.7 |
| 20260906200821 | 85 | 165 | 2.6 | 5.2 | 0.00 | 0.00 | 0.00 | 44 | 1019.9 |
| 20260906200318 | 85 | 167 | 1.7 | 2.6 | 0.00 | 0.00 | 0.00 | 43 | 1019.8 |
| 20260906195812 | 86 | 48 | 1.7 | 2.6 | 0.00 | 0.00 | 0.00 | 42 | 1020.0 |
| 20260906195309 | 86 | 203 | 0.0 | 1.7 | 0.00 | 0.00 | 0.00 | 43 | 1020.0 |
| 20260906194805 | 87 | 156 | 2.6 | 2.6 | 0.00 | 0.00 | 0.00 | 41 | 1020.1 |
| 20260906194300 | 83 | 202 | 0.9 | 0.9 | 0.00 | 0.00 | 0.00 | 44 | 1020.0 |
| 20260906193755 | 84 | 254 | 0.9 | 2.6 | 0.00 | 0.00 | 0.00 | 45 | 1020.1 |
| 20260906193249 | 85 | 208 | 0.9 | 2.6 | 0.00 | 0.00 | 0.00 | 45 | 1020.3 |
| 20260906192746 | 84 | 176 | 0.0 | 1.7 | 0.00 | 0.00 | 0.00 | 45 | 1020.1 |
| 20260906192246 | 83 | 199 | 0.0 | 1.7 | 0.00 | 0.00 | 0.00 | 45 | 1020.6 |
| 20260906191744 | 82 | 159 | 1.7 | 2.6 | 0.00 | 0.00 | 0.00 | 48 | 1020.5 |
| 20260906191239 | 83 | 141 | 1.7 | 4.3 | 0.00 | 0.00 | 0.00 | 49 | 1020.7 |
| 20260906190734 | 82 | 285 | 0.9 | 1.7 | 0.00 | 0.00 | 0.00 | 47 | 1020.7 |
| 20260906190228 | 82 | 169 | 1.7 | 2.6 | 0.00 | 0.00 | 0.00 | 49 | 1020.7 |
| 20260906185727 | 82 | 131 | 0.9 | 2.6 | 0.00 | 0.00 | 0.00 | 48 | 1020.7 |
| 20260906185226 | 80 | 133 | 1.7 | 2.6 | 0.00 | 0.00 | 0.00 | 48 | 1020.8 |
| 20260906184721 | 81 | 185 | 0.0 | 0.9 | 0.00 | 0.00 | 0.00 | 48 | 1021.1 |
| 20260906184216 | 80 | 176 | 0.9 | 2.6 | 0.00 | 0.00 | 0.00 | 51 | 1021.4 |
| 20260906183712 | 80 | 127 | 0.0 | 0.9 | 0.00 | 0.00 | 0.00 | 50 | 1021.2 |
| 20260906183209 | 78 | 97 | 0.9 | 2.6 | 0.00 | 0.00 | 0.00 | 52 | 1021.6 |
| 20260906182708 | 80 | 118 | 2.6 | 4.3 | 0.00 | 0.00 | 0.00 | 50 | 1021.6 |
| 20260906182204 | 80 | 186 | 1.7 | 4.3 | 0.00 | 0.00 | 0.00 | 50 | 1021.5 |
| 20260906181659 | 81 | 150 | 1.7 | 2.6 | 0.00 | 0.00 | 0.00 | 50 | 1021.6 |
| 20260906181156 | 80 | 227 | 2.6 | 2.6 | 0.00 | 0.00 | 0.00 | 51 | 1021.8 |
| 20260906180655 | 80 | 189 | 3.5 | 5.2 | 0.00 | 0.00 | 0.00 | 53 | 1021.9 |
| 20260906180151 | 79 | 149 | 1.7 | 4.3 | 0.00 | 0.00 | 0.00 | 52 | 1021.9 |
| 20260906175649 | 78 | 161 | 2.6 | 2.6 | 0.00 | 0.00 | 0.00 | 57 | 1022.3 |
| 20260906175144 | 78 | 203 | 1.7 | 2.6 | 0.00 | 0.00 | 0.00 | 57 | 1022.2 |
| 20260906174642 | 80 | 141 | 1.7 | 5.2 | 0.00 | 0.00 | 0.00 | 56 | 1022.5 |
| 20260906174137 | 80 | 197 | 0.9 | 0.9 | 0.00 | 0.00 | 0.00 | 52 | 1022.2 |
| 20260906173632 | 79 | 144 | 2.6 | 2.6 | 0.00 | 0.00 | 0.00 | 53 | 1022.3 |
| 20260906173128 | 77 | 113 | 0.9 | 4.3 | 0.00 | 0.00 | 0.00 | 56 | 1022.6 |
| 20260906172627 | 77 | 169 | 0.9 | 4.3 | 0.00 | 0.00 | 0.00 | 55 | 1022.5 |
| 20260906172123 | 78 | 122 | 3.5 | 4.3 | 0.00 | 0.00 | 0.00 | 56 | 1022.8 |
| 20260906171622 | 78 | 19 | 3.5 | 5.2 | 0.00 | 0.00 | 0.00 | 57 | 1022.9 |
| 20260906171118 | 77 | 194 | 0.0 | 1.7 | 0.00 | 0.00 | 0.00 | 59 | 1022.9 |
| 20260906170615 | 77 | 123 | 0.0 | 0.9 | 0.00 | 0.00 | 0.00 | 58 | 1023.0 |
| 20260906170113 | 76 | 148 | 1.7 | 2.6 | 0.00 | 0.00 | 0.00 | 59 | 1023.0 |
| 20260906165610 | 76 | 174 | 1.7 | 5.2 | 0.00 | 0.00 | 0.00 | 61 | 1022.7 |
| 20260906165105 | 77 | 147 | 0.9 | 4.3 | 0.00 | 0.00 | 0.00 | 59 | 1022.8 |
| 20260906164604 | 76 | 163 | 0.0 | 0.9 | 0.00 | 0.00 | 0.00 | 57 | 1023.2 |
| 20260906164100 | 76 | 327 | 2.6 | 5.2 | 0.00 | 0.00 | 0.00 | 60 | 1023.0 |
| 20260906163555 | 73 | 57 | 1.7 | 2.6 | 0.00 | 0.00 | 0.00 | 62 | 1022.9 |
| 20260906163051 | 74 | 37 | 1.7 | 1.7 | 0.00 | 0.00 | 0.00 | 61 | 1022.9 |
| 20260906162548 | 76 | 327 | 0.9 | 1.7 | 0.00 | 0.00 | 0.00 | 57 | 1022.6 |
| 20260906162043 | 74 | 152 | 0.0 | 0.9 | 0.00 | 0.00 | 0.00 | 60 | 1022.8 |
| 20260906161538 | 73 | 34 | 1.7 | 4.3 | 0.00 | 0.00 | 0.00 | 63 | 1022.9 |
| 20260906161037 | 75 | 120 | 1.7 | 1.7 | 0.00 | 0.00 | 0.00 | 59 | 1023.0 |
| 20260906160536 | 74 | 204 | 2.6 | 4.3 | 0.00 | 0.00 | 0.00 | 61 | 1022.9 |
| 20260906160035 | 74 | 196 | 0.0 | 2.6 | 0.00 | 0.00 | 0.00 | 61 | 1023.2 |
| 20260906155532 | 72 | 232 | 2.6 | 2.6 | 0.00 | 0.00 | 0.00 | 63 | 1023.0 |
| 20260906155028 | 73 | 341 | 4.3 | 5.2 | 0.00 | 0.00 | 0.00 | 63 | 1023.2 |
| 20260906154524 | 74 | 180 | 0.0 | 0.9 | 0.00 | 0.00 | 0.00 | 61 | 1023.2 |
| 20260906154022 | 73 | 151 | 0.9 | 2.6 | 0.00 | 0.00 | 0.00 | 62 | 1022.9 |
| 20260906153521 | 71 | 190 | 1.7 | 2.6 | 0.00 | 0.00 | 0.00 | 64 | 1023.2 |
| 20260906153017 | 70 | 164 | 1.7 | 1.7 | 0.00 | 0.00 | 0.00 | 65 | 1023.3 |
| 20260906152517 | 71 | 343 | 1.7 | 1.7 | 0.00 | 0.00 | 0.00 | 63 | 1023.3 |
| 20260906152016 | 71 | 178 | 0.9 | 1.7 | 0.00 | 0.00 | 0.00 | 64 | 1023.3 |
| 20260906151512 | 69 | 195 | 0.9 | 2.6 | 0.00 | 0.00 | 0.00 | 67 | 1023.5 |
| 20260906151007 | 69 | 5 | 3.5 | 4.3 | 0.00 | 0.00 | 0.00 | 66 | 1023.3 |
| 20260906150502 | 68 | 93 | 1.7 | 1.7 | 0.00 | 0.00 | 0.00 | 66 | 1023.4 |
| 20260906150002 | 69 | 54 | 3.5 | 4.3 | 0.00 | 0.00 | 0.00 | 67 | 1023.2 |
| 20260906145456 | 69 | 59 | 2.6 | 4.3 | 0.00 | 0.00 | 0.00 | 68 | 1023.4 |
| 20260906144955 | 69 | 138 | 1.7 | 1.7 | 0.00 | 0.00 | 0.00 | 67 | 1023.2 |
| 20260906144450 | 68 | 146 | 0.9 | 1.7 | 0.00 | 0.00 | 0.00 | 68 | 1023.4 |
| 20260906143946 | 68 | 20 | 1.7 | 2.6 | 0.00 | 0.00 | 0.00 | 68 | 1023.3 |
| 20260906143441 | 67 | 108 | 0.9 | 0.9 | 0.00 | 0.00 | 0.00 | 67 | 1023.2 |
| 20260906142937 | 65 | 170 | 0.0 | 0.9 | 0.00 | 0.00 | 0.00 | 70 | 1023.3 |
| 20260906142431 | 65 | 218 | 0.9 | 0.9 | 0.00 | 0.00 | 0.00 | 70 | 1023.5 |
| 20260906141926 | 65 | 287 | 0.9 | 2.6 | 0.00 | 0.00 | 0.00 | 70 | 1023.3 |
| 20260906141426 | 66 | 197 | 0.0 | 1.7 | 0.00 | 0.00 | 0.00 | 69 | 1023.2 |
| 20260906140920 | 65 | 298 | 0.9 | 1.7 | 0.00 | 0.00 | 0.00 | 69 | 1023.4 |
| 20260906140415 | 64 | 273 | 2.6 | 5.2 | 0.00 | 0.00 | 0.00 | 69 | 1023.5 |
| 20260906135913 | 64 | 309 | 3.5 | 4.3 | 0.00 | 0.00 | 0.00 | 69 | 1023.4 |
| 20260906135412 | 64 | 308 | 2.6 | 2.6 | 0.00 | 0.00 | 0.00 | 68 | 1023.6 |
| 20260906134908 | 63 | 321 | 1.7 | 2.6 | 0.00 | 0.00 | 0.00 | 68 | 1023.5 |
| 20260906134403 | 63 | 310 | 1.7 | 4.3 | 0.00 | 0.00 | 0.00 | 68 | 1023.5 |
| 20260906133858 | 62 | 199 | 0.0 | 0.0 | 0.00 | 0.00 | 0.00 | 69 | 1023.3 |
| 20260906133354 | 62 | 227 | 0.9 | 2.6 | 0.00 | 0.00 | 0.00 | 69 | 1023.5 |
| 20260906132849 | 62 | 271 | 0.9 | 1.7 | 0.00 | 0.00 | 0.00 | 69 | 1023.3 |
| 20260906132344 | 61 | 302 | 1.7 | 1.7 | 0.00 | 0.00 | 0.00 | 70 | 1023.4 |
| 20260906131840 | 61 | 269 | 1.7 | 2.6 | 0.00 | 0.00 | 0.00 | 71 | 1023.3 |
| 20260906131335 | 61 | 284 | 1.7 | 1.7 | 0.00 | 0.00 | 0.00 | 71 | 1023.2 |
| 20260906130831 | 61 | 257 | 0.9 | 1.7 | 0.00 | 0.00 | 0.00 | 72 | 1023.0 |
| 20260906130330 | 61 | 217 | 0.0 | 0.9 | 0.00 | 0.00 | 0.00 | 73 | 1022.9 |
| 20260906125829 | 61 | 240 | 0.9 | 0.9 | 0.00 | 0.00 | 0.00 | 71 | 1023.2 |
| 20260906125327 | 61 | 283 | 1.7 | 2.6 | 0.00 | 0.00 | 0.00 | 71 | 1023.3 |
| 20260906124821 | 61 | 318 | 1.7 | 2.6 | 0.00 | 0.00 | 0.00 | 72 | 1023.4 |
| 20260906124318 | 61 | 284 | 0.9 | 2.6 | 0.00 | 0.00 | 0.00 | 71 | 1023.0 |
| 20260906123816 | 61 | 5 | 0.9 | 2.6 | 0.00 | 0.00 | 0.00 | 71 | 1022.9 |
| 20260906123312 | 61 | 30 | 0.9 | 0.9 | 0.00 | 0.00 | 0.00 | 70 | 1022.8 |
| 20260906122811 | 61 | 2 | 2.6 | 2.6 | 0.00 | 0.00 | 0.00 | 70 | 1023.2 |
| 20260906122307 | 60 | 247 | 0.9 | 0.9 | 0.00 | 0.00 | 0.00 | 74 | 1023.2 |
| 20260906121803 | 60 | 222 | 0.9 | 0.9 | 0.00 | 0.00 | 0.00 | 77 | 1023.3 |
| 20260906121259 | 59 | 178 | 0.0 | 0.0 | 0.00 | 0.00 | 0.00 | 78 | 1023.2 |
| 20260906120754 | 59 | 184 | 0.0 | 0.0 | 0.00 | 0.00 | 0.00 | 77 | 1022.9 |
| 20260906120246 | 60 | 197 | 0.0 | 0.0 | 0.00 | 0.00 | 0.00 | 76 | 1023.2 |
| 20260906115741 | 60 | 223 | 0.0 | 0.9 | 0.00 | 0.00 | 0.00 | 75 | 1023.0 |
| 20260906115236 | 61 | 208 | 0.0 | 0.9 | 0.00 | 0.00 | 0.00 | 73 | 1023.2 |
| 20260906114734 | 61 | 272 | 0.9 | 0.9 | 0.00 | 0.00 | 0.00 | 73 | 1022.9 |
| 20260906114230 | 61 | 243 | 0.9 | 0.9 | 0.00 | 0.00 | 0.00 | 72 | 1023.2 |
| 20260906113726 | 61 | 201 | 0.0 | 0.0 | 0.00 | 0.00 | 0.00 | 73 | 1022.9 |
| 20260906113225 | 61 | 243 | 0.9 | 0.9 | 0.00 | 0.00 | 0.00 | 71 | 1022.9 |
| 20260906112724 | 62 | 250 | 0.9 | 1.7 | 0.00 | 0.00 | 0.00 | 70 | 1023.2 |
| 20260906112221 | 62 | 229 | 0.9 | 1.7 | 0.00 | 0.00 | 0.00 | 70 | 1022.9 |
| 20260906111720 | 62 | 230 | 0.9 | 0.9 | 0.00 | 0.00 | 0.00 | 70 | 1022.9 |
| 20260906111216 | 61 | 225 | 0.0 | 0.9 | 0.00 | 0.00 | 0.00 | 70 | 1022.8 |
| 20260906110710 | 62 | 249 | 0.9 | 1.7 | 0.00 | 0.00 | 0.00 | 70 | 1022.9 |
| 20260906110200 | 62 | 250 | 0.9 | 0.9 | 0.00 | 0.00 | 0.00 | 69 | 1022.9 |
| 20260906105654 | 62 | 257 | 0.9 | 1.7 | 0.00 | 0.00 | 0.00 | 69 | 1022.9 |
| 20260906105150 | 61 | 218 | 0.9 | 0.9 | 0.00 | 0.00 | 0.00 | 71 | 1022.9 |
| 20260906104649 | 61 | 273 | 0.9 | 1.7 | 0.00 | 0.00 | 0.00 | 71 | 1023.0 |
| 20260906104143 | 61 | 211 | 0.0 | 0.9 | 0.00 | 0.00 | 0.00 | 71 | 1023.0 |
| 20260906103641 | 62 | 197 | 0.0 | 0.9 | 0.00 | 0.00 | 0.00 | 69 | 1022.7 |
| 20260906103137 | 62 | 214 | 0.0 | 0.9 | 0.00 | 0.00 | 0.00 | 68 | 1022.9 |
| 20260906102632 | 63 | 286 | 1.7 | 1.7 | 0.00 | 0.00 | 0.00 | 65 | 1022.9 |
| 20260906102131 | 63 | 205 | 0.0 | 0.9 | 0.00 | 0.00 | 0.00 | 64 | 1022.9 |
| 20260906101626 | 64 | 246 | 0.0 | 0.9 | 0.00 | 0.00 | 0.00 | 63 | 1022.9 |
| 20260906101126 | 64 | 158 | 0.0 | 0.0 | 0.00 | 0.00 | 0.00 | 66 | 1022.7 |
| 20260906100621 | 64 | 185 | 0.0 | 0.9 | 0.00 | 0.00 | 0.00 | 63 | 1022.9 |
| 20260906100122 | 64 | 137 | 0.0 | 0.9 | 0.00 | 0.00 | 0.00 | 61 | 1022.7 |
| 20260906095616 | 65 | 347 | 0.9 | 1.7 | 0.00 | 0.00 | 0.00 | 58 | 1022.8 |
| 20260906095112 | 65 | 195 | 0.0 | 0.0 | 0.00 | 0.00 | 0.00 | 59 | 1022.5 |
| 20260906094610 | 66 | 316 | 1.7 | 2.6 | 0.00 | 0.00 | 0.00 | 58 | 1022.5 |
| 20260906094107 | 65 | 288 | 0.9 | 1.7 | 0.00 | 0.00 | 0.00 | 59 | 1022.6 |
| 20260906093603 | 66 | 212 | 0.0 | 0.9 | 0.00 | 0.00 | 0.00 | 60 | 1022.6 |
| 20260906093057 | 66 | 234 | 0.9 | 0.9 | 0.00 | 0.00 | 0.00 | 59 | 1022.6 |
| 20260906092552 | 65 | 313 | 2.6 | 2.6 | 0.00 | 0.00 | 0.00 | 60 | 1022.2 |
| 20260906092047 | 65 | 198 | 0.0 | 0.0 | 0.00 | 0.00 | 0.00 | 61 | 1022.3 |
| 20260906091543 | 66 | 204 | 0.0 | 0.0 | 0.00 | 0.00 | 0.00 | 60 | 1022.2 |
| 20260906091039 | 66 | 204 | 0.0 | 0.9 | 0.00 | 0.00 | 0.00 | 58 | 1022.3 |
| 20260906090539 | 66 | 225 | 0.9 | 0.9 | 0.00 | 0.00 | 0.00 | 59 | 1022.2 |
| 20260906090034 | 66 | 244 | 0.9 | 0.9 | 0.00 | 0.00 | 0.00 | 59 | 1021.9 |
| 20260906085533 | 66 | 193 | 0.0 | 0.0 | 0.00 | 0.00 | 0.00 | 58 | 1022.0 |
| 20260906085032 | 67 | 188 | 0.0 | 0.0 | 0.00 | 0.00 | 0.00 | 58 | 1022.0 |
| 20260906084527 | 67 | 272 | 0.9 | 0.9 | 0.00 | 0.00 | 0.00 | 58 | 1022.1 |
| 20260906084026 | 67 | 236 | 0.9 | 1.7 | 0.00 | 0.00 | 0.00 | 58 | 1022.2 |
| 20260906083522 | 67 | 355 | 1.7 | 1.7 | 0.00 | 0.00 | 0.00 | 58 | 1022.1 |
| 20260906083021 | 67 | 295 | 2.6 | 2.6 | 0.00 | 0.00 | 0.00 | 59 | 1022.0 |
| 20260906082517 | 67 | 191 | 0.0 | 0.9 | 0.00 | 0.00 | 0.00 | 58 | 1022.2 |
| 20260906082013 | 67 | 315 | 1.7 | 5.2 | 0.00 | 0.00 | 0.00 | 58 | 1022.1 |
| 20260906081508 | 67 | 9 | 0.0 | 1.7 | 0.00 | 0.00 | 0.00 | 58 | 1022.2 |
| 20260906081003 | 67 | 11 | 0.9 | 1.7 | 0.00 | 0.00 | 0.00 | 58 | 1022.0 |
| 20260906080500 | 67 | 278 | 2.6 | 4.3 | 0.00 | 0.00 | 0.00 | 58 | 1022.2 |
| 20260906075955 | 67 | 350 | 1.7 | 2.6 | 0.00 | 0.00 | 0.00 | 59 | 1022.3 |
| 20260906075450 | 67 | 236 | 0.9 | 2.6 | 0.00 | 0.00 | 0.00 | 59 | 1022.3 |
| 20260906074944 | 67 | 244 | 1.7 | 2.6 | 0.00 | 0.00 | 0.00 | 58 | 1022.5 |
| 20260906074439 | 68 | 211 | 0.0 | 0.9 | 0.00 | 0.00 | 0.00 | 58 | 1022.3 |
| 20260906073937 | 68 | 322 | 2.6 | 4.3 | 0.00 | 0.00 | 0.00 | 56 | 1022.2 |
| 20260906073432 | 68 | 324 | 2.6 | 2.6 | 0.00 | 0.00 | 0.00 | 56 | 1022.1 |
| 20260906072929 | 68 | 299 | 1.7 | 5.2 | 0.00 | 0.00 | 0.00 | 55 | 1022.2 |
| 20260906072424 | 68 | 348 | 3.5 | 6.1 | 0.00 | 0.00 | 0.00 | 54 | 1022.1 |
| 20260906071920 | 68 | 13 | 3.5 | 6.1 | 0.00 | 0.00 | 0.00 | 54 | 1022.3 |
| 20260906071415 | 68 | 30 | 2.6 | 5.2 | 0.00 | 0.00 | 0.00 | 54 | 1022.3 |
| 20260906070911 | 68 | 16 | 0.9 | 6.1 | 0.00 | 0.00 | 0.00 | 52 | 1022.6 |
| 20260906070407 | 68 | 346 | 1.7 | 2.6 | 0.00 | 0.00 | 0.00 | 53 | 1022.3 |
| 20260906065903 | 68 | 329 | 1.7 | 2.6 | 0.00 | 0.00 | 0.00 | 54 | 1022.5 |
| 20260906065356 | 68 | 306 | 1.7 | 2.6 | 0.00 | 0.00 | 0.00 | 54 | 1022.8 |
| 20260906064853 | 68 | 328 | 0.9 | 0.9 | 0.00 | 0.00 | 0.00 | 54 | 1022.6 |
| 20260906064349 | 67 | 127 | 0.0 | 0.9 | 0.00 | 0.00 | 0.00 | 56 | 1022.6 |
| 20260906063848 | 66 | 195 | 0.0 | 0.0 | 0.00 | 0.00 | 0.00 | 58 | 1022.7 |
| 20260906063344 | 67 | 208 | 0.0 | 0.9 | 0.00 | 0.00 | 0.00 | 58 | 1022.6 |
| 20260906062839 | 67 | 179 | 0.0 | 0.9 | 0.00 | 0.00 | 0.00 | 57 | 1022.7 |
| 20260906062338 | 68 | 178 | 0.0 | 0.0 | 0.00 | 0.00 | 0.00 | 54 | 1022.3 |
| 20260906061834 | 68 | 148 | 0.0 | 0.0 | 0.00 | 0.00 | 0.00 | 53 | 1022.3 |
| 20260906061330 | 67 | 112 | 0.9 | 0.9 | 0.00 | 0.00 | 0.00 | 56 | 1022.2 |
| 20260906060824 | 67 | 212 | 0.0 | 0.9 | 0.00 | 0.00 | 0.00 | 54 | 1022.2 |
| 20260906060323 | 68 | 215 | 0.0 | 0.9 | 0.00 | 0.00 | 0.00 | 54 | 1022.2 |
| 20260906055818 | 68 | 275 | 1.7 | 1.7 | 0.00 | 0.00 | 0.00 | 53 | 1022.2 |
| 20260906055313 | 68 | 294 | 0.9 | 2.6 | 0.00 | 0.00 | 0.00 | 54 | 1022.2 |
| 20260906054809 | 68 | 300 | 1.7 | 1.7 | 0.00 | 0.00 | 0.00 | 54 | 1022.1 |
| 20260906054304 | 68 | 301 | 1.7 | 1.7 | 0.00 | 0.00 | 0.00 | 54 | 1022.2 |
| 20260906053800 | 69 | 298 | 1.7 | 1.7 | 0.00 | 0.00 | 0.00 | 53 | 1022.5 |
| 20260906053255 | 68 | 303 | 1.7 | 1.7 | 0.00 | 0.00 | 0.00 | 55 | 1022.3 |
| 20260906052750 | 69 | 234 | 0.9 | 0.9 | 0.00 | 0.00 | 0.00 | 52 | 1022.5 |
| 20260906052246 | 69 | 194 | 0.0 | 0.9 | 0.00 | 0.00 | 0.00 | 51 | 1022.2 |
| 20260906051744 | 69 | 202 | 0.9 | 1.7 | 0.00 | 0.00 | 0.00 | 51 | 1022.3 |
| 20260906051243 | 70 | 217 | 0.0 | 0.9 | 0.00 | 0.00 | 0.00 | 52 | 1022.1 |
| 20260906050738 | 71 | 176 | 0.9 | 1.7 | 0.00 | 0.00 | 0.00 | 48 | 1021.8 |
| 20260906050233 | 70 | 87 | 2.6 | 2.6 | 0.00 | 0.00 | 0.00 | 49 | 1021.8 |
| 20260906045732 | 71 | 129 | 2.6 | 2.6 | 0.00 | 0.00 | 0.00 | 49 | 1021.4 |
| 20260906045227 | 71 | 326 | 2.6 | 4.3 | 0.00 | 0.00 | 0.00 | 47 | 1021.3 |
| 20260906044723 | 72 | 236 | 0.0 | 0.9 | 0.00 | 0.00 | 0.00 | 47 | 1021.4 |
| 20260906044218 | 72 | 268 | 0.9 | 2.6 | 0.00 | 0.00 | 0.00 | 46 | 1021.4 |
| 20260906043714 | 72 | 104 | 0.9 | 4.3 | 0.00 | 0.00 | 0.00 | 46 | 1021.3 |
| 20260906043210 | 72 | 84 | 0.9 | 2.6 | 0.00 | 0.00 | 0.00 | 47 | 1021.2 |
| 20260906042709 | 73 | 268 | 0.9 | 1.7 | 0.00 | 0.00 | 0.00 | 46 | 1021.1 |
| 20260906042209 | 73 | 329 | 0.9 | 2.6 | 0.00 | 0.00 | 0.00 | 46 | 1020.7 |
| 20260906041704 | 73 | 289 | 4.3 | 5.2 | 0.00 | 0.00 | 0.00 | 46 | 1020.8 |
| 20260906041159 | 72 | 323 | 3.5 | 4.3 | 0.00 | 0.00 | 0.00 | 46 | 1021.1 |
| 20260906040655 | 73 | 299 | 1.7 | 1.7 | 0.00 | 0.00 | 0.00 | 47 | 1020.8 |
| 20260906040150 | 73 | 330 | 1.7 | 2.6 | 0.00 | 0.00 | 0.00 | 46 | 1020.7 |
| 20260906035645 | 73 | 275 | 0.9 | 2.6 | 0.00 | 0.00 | 0.00 | 46 | 1021.2 |
| 20260906035142 | 74 | 285 | 0.9 | 1.7 | 0.00 | 0.00 | 0.00 | 46 | 1021.2 |
| 20260906034636 | 75 | 293 | 1.7 | 5.2 | 0.00 | 0.00 | 0.00 | 44 | 1021.0 |
| 20260906034136 | 75 | 237 | 0.9 | 2.6 | 0.00 | 0.00 | 0.00 | 43 | 1021.1 |
| 20260906033631 | 75 | 26 | 0.9 | 1.7 | 0.00 | 0.00 | 0.00 | 43 | 1021.3 |
| 20260906033126 | 76 | 251 | 1.7 | 2.6 | 0.00 | 0.00 | 0.00 | 42 | 1021.1 |
| 20260906032623 | 76 | 36 | 0.9 | 2.6 | 0.00 | 0.00 | 0.00 | 41 | 1021.2 |
| 20260906032122 | 76 | 68 | 0.9 | 1.7 | 0.00 | 0.00 | 0.00 | 41 | 1021.0 |
| 20260906031618 | 76 | 114 | 0.0 | 0.9 | 0.00 | 0.00 | 0.00 | 41 | 1021.1 |
| 20260906031113 | 77 | 306 | 0.9 | 1.7 | 0.00 | 0.00 | 0.00 | 40 | 1021.0 |
| 20260906030612 | 77 | 87 | 0.9 | 1.7 | 0.00 | 0.00 | 0.00 | 41 | 1021.0 |
| 20260906030108 | 77 | 207 | 0.0 | 0.9 | 0.00 | 0.00 | 0.00 | 40 | 1020.6 |
| 20260906025607 | 77 | 6 | 1.7 | 2.6 | 0.00 | 0.00 | 0.00 | 40 | 1020.5 |
| 20260906025106 | 77 | 81 | 1.7 | 4.3 | 0.00 | 0.00 | 0.00 | 40 | 1020.7 |
| 20260906024601 | 77 | 72 | 0.9 | 2.6 | 0.00 | 0.00 | 0.00 | 39 | 1020.1 |
| 20260906024055 | 77 | 312 | 1.7 | 1.7 | 0.00 | 0.00 | 0.00 | 39 | 1020.5 |
| 20260906023552 | 77 | 57 | 2.6 | 6.1 | 0.00 | 0.00 | 0.00 | 39 | 1020.5 |
| 20260906023046 | 77 | 158 | 0.0 | 0.9 | 0.00 | 0.00 | 0.00 | 38 | 1020.3 |
| 20260906022541 | 78 | 316 | 1.7 | 1.7 | 0.00 | 0.00 | 0.00 | 37 | 1020.1 |
| 20260906022037 | 78 | 163 | 0.0 | 0.9 | 0.00 | 0.00 | 0.00 | 37 | 1020.1 |
| 20260906021532 | 78 | 158 | 0.0 | 0.0 | 0.00 | 0.00 | 0.00 | 37 | 1020.0 |
| 20260906021031 | 78 | 187 | 0.0 | 0.9 | 0.00 | 0.00 | 0.00 | 36 | 1019.8 |
| 20260906020531 | 79 | 242 | 1.7 | 1.7 | 0.00 | 0.00 | 0.00 | 35 | 1019.8 |
| 20260906020031 | 79 | 346 | 1.7 | 1.7 | 0.00 | 0.00 | 0.00 | 36 | 1020.0 |
| 20260906015529 | 79 | 236 | 1.7 | 2.6 | 0.00 | 0.00 | 0.00 | 35 | 1019.8 |
| 20260906015024 | 80 | 275 | 3.5 | 6.1 | 0.00 | 0.00 | 0.00 | 35 | 1019.6 |
| 20260906014519 | 80 | 326 | 2.6 | 4.3 | 0.00 | 0.00 | 0.00 | 34 | 1019.8 |
| 20260906014015 | 81 | 353 | 1.7 | 4.3 | 0.00 | 0.00 | 0.00 | 33 | 1019.8 |
| 20260906013510 | 81 | 215 | 0.9 | 2.6 | 0.00 | 0.00 | 0.00 | 34 | 1019.6 |
| 20260906013006 | 80 | 291 | 1.7 | 1.7 | 0.00 | 0.00 | 0.00 | 34 | 1019.6 |
| 20260906012501 | 81 | 328 | 2.6 | 4.3 | 0.00 | 0.00 | 0.00 | 33 | 1019.4 |
| 20260906012000 | 81 | 333 | 0.9 | 2.6 | 0.00 | 0.00 | 0.00 | 34 | 1019.8 |
| 20260906011456 | 81 | 195 | 0.0 | 0.9 | 0.00 | 0.00 | 0.00 | 34 | 1019.7 |
| 20260906010950 | 81 | 183 | 1.7 | 4.3 | 0.00 | 0.00 | 0.00 | 33 | 1019.9 |
| 20260906010446 | 81 | 327 | 2.6 | 7.0 | 0.00 | 0.00 | 0.00 | 33 | 1020.0 |
| 20260906005943 | 81 | 327 | 3.5 | 7.0 | 0.00 | 0.00 | 0.00 | 33 | 1019.8 |
| 20260906005441 | 82 | 300 | 2.6 | 7.0 | 0.00 | 0.00 | 0.00 | 34 | 1020.0 |
| 20260906004940 | 82 | 297 | 3.5 | 7.0 | 0.00 | 0.00 | 0.00 | 33 | 1019.6 |
| 20260906004434 | 82 | 291 | 4.3 | 7.0 | 0.00 | 0.00 | 0.00 | 33 | 1019.9 |
| 20260906003930 | 82 | 346 | 4.3 | 9.6 | 0.00 | 0.00 | 0.00 | 33 | 1019.9 |
| 20260906003430 | 82 | 293 | 6.1 | 13.0 | 0.00 | 0.00 | 0.00 | 33 | 1020.0 |
| 20260906002926 | 83 | 334 | 3.5 | 9.6 | 0.00 | 0.00 | 0.00 | 33 | 1019.9 |
| 20260906002425 | 83 | 323 | 7.8 | 11.3 | 0.00 | 0.00 | 0.00 | 33 | 1020.0 |
| 20260906001920 | 83 | 311 | 10.4 | 12.2 | 0.00 | 0.00 | 0.00 | 32 | 1019.8 |
| 20260906001416 | 83 | 278 | 7.0 | 11.3 | 0.00 | 0.00 | 0.00 | 34 | 1019.8 |
| 20260906000911 | 83 | 332 | 5.2 | 12.2 | 0.00 | 0.00 | 0.00 | 34 | 1019.8 |
| 20260906000406 | 83 | 255 | 4.3 | 11.3 | 0.00 | 0.00 | 0.00 | 33 | 1020.1 |
| 20260905235901 | 85 | 325 | 8.7 | 12.2 | 0.00 | 0.00 | 0.00 | 31 | 1020.0 |
| 20260905235355 | 87 | 309 | 4.3 | 5.2 | 0.00 | 0.00 | 0.00 | 27 | 1019.8 |
| 20260905234850 | 87 | 311 | 5.2 | 7.0 | 0.00 | 0.00 | 0.00 | 26 | 1020.1 |
| 20260905234346 | 87 | 271 | 2.6 | 6.1 | 0.00 | 0.00 | 0.00 | 27 | 1019.8 |
| 20260905233841 | 87 | 282 | 2.6 | 5.2 | 0.00 | 0.00 | 0.00 | 28 | 1019.7 |
| 20260905233335 | 87 | 289 | 4.3 | 11.3 | 0.00 | 0.00 | 0.00 | 27 | 1019.7 |
| 20260905232835 | 87 | 296 | 2.6 | 2.6 | 0.00 | 0.00 | 0.00 | 28 | 1019.3 |
| 20260905232331 | 88 | 261 | 0.9 | 1.7 | 0.00 | 0.00 | 0.00 | 27 | 1019.4 |
| 20260905231826 | 89 | 262 | 0.9 | 1.7 | 0.00 | 0.00 | 0.00 | 26 | 1019.2 |
| 20260905231321 | 89 | 224 | 0.9 | 0.9 | 0.00 | 0.00 | 0.00 | 27 | 1019.7 |
| 20260905230818 | 89 | 188 | 0.9 | 1.7 | 0.00 | 0.00 | 0.00 | 25 | 1019.2 |
| 20260905230316 | 90 | 116 | 0.9 | 1.7 | 0.00 | 0.00 | 0.00 | 25 | 1019.1 |
| 20260905225815 | 90 | 151 | 0.0 | 2.6 | 0.00 | 0.00 | 0.00 | 26 | 1019.1 |
| 20260905225310 | 89 | 97 | 1.7 | 5.2 | 0.00 | 0.00 | 0.00 | 25 | 1019.1 |
| 20260905224810 | 89 | 89 | 2.6 | 4.3 | 0.00 | 0.00 | 0.00 | 25 | 1019.1 |
| 20260905224306 | 89 | 115 | 0.9 | 6.1 | 0.00 | 0.00 | 0.00 | 26 | 1018.7 |
| 20260905223801 | 89 | 157 | 0.9 | 1.7 | 0.00 | 0.00 | 0.00 | 25 | 1018.9 |
| 20260905223258 | 89 | 105 | 1.7 | 4.3 | 0.00 | 0.00 | 0.00 | 25 | 1018.7 |
| 20260905222753 | 89 | 141 | 0.9 | 2.6 | 0.00 | 0.00 | 0.00 | 25 | 1018.9 |
| 20260905222252 | 90 | 153 | 1.7 | 4.3 | 0.00 | 0.00 | 0.00 | 25 | 1018.9 |
| 20260905221748 | 91 | 92 | 3.5 | 6.1 | 0.00 | 0.00 | 0.00 | 24 | 1019.0 |
| 20260905221245 | 91 | 109 | 1.7 | 7.0 | 0.00 | 0.00 | 0.00 | 24 | 1019.0 |
| 20260905220740 | 92 | 85 | 4.3 | 7.8 | 0.00 | 0.00 | 0.00 | 22 | 1018.6 |
| 20260905220236 | 92 | 201 | 9.6 | 14.8 | 0.00 | 0.00 | 0.00 | 22 | 1018.7 |
| 20260905215736 | 93 | 128 | 4.3 | 6.1 | 0.00 | 0.00 | 0.00 | 22 | 1019.0 |
| 20260905215231 | 93 | 12 | 3.5 | 5.2 | 0.00 | 0.00 | 0.00 | 21 | 1019.0 |